Regional Weather Roundup
Issued by NWS Albany, NY

Home | Current Version | Previous Version | Text Only | Print | Product List | Glossary On
Versions: 1 2 3 4 5 6 7 8 9 10 11 12 13 14 15 16 17 18 19 20 21 22 23 24 25 26 27 28
000
ASUS41 KALY 242110
RWRALY

NEW YORK STATE HOURLY WEATHER ROUNDUP
NATIONAL WEATHER SERVICE ALBANY NY
500 PM EDT FRI OCT 24 2014

NOTE: "FAIR" INDICATES FEW OR NO CLOUDS BELOW 12,000 FEET WITH NO
SIGNIFICANT WEATHER AND/OR NO OBSTRUCTIONS TO VISIBILITY.

NYZ032-033-038>043-046>054-057>066-NYZ062>081-242200-
EAST


CITY           SKY/WX    TMP DP  RH WIND       PRES   REMARKS
ALBANY         CLOUDY    48  44  86 N6        29.82R
GLENS FALLS    CLOUDY    47  44  90 E3        29.82R
POUGHKEEPSIE   CLOUDY    57  45  64 N5        29.78S
NEWBURGH       PTSUNNY   59  48  67 VRB6      29.79R
MONTGOMERY     CLOUDY    62  44  51 N8        29.76S
WHITE PLAINS   MOCLDY    57  44  62 N7        29.77S
ISLIP          MOCLDY    56  45  66 NW14      29.76R
NEW YORK CITY  CLOUDY    60  46  59 NE9       29.77R
CENTRAL PARK   CLOUDY    63  44  50 VRB6      29.79S
$$

NYZ005>009-017-018-044>046-055-056-242200-
CENTRAL


CITY           SKY/WX    TMP DP  RH WIND       PRES   REMARKS
FULTON         SUNNY     53  39  59 NW15      29.91S
SYRACUSE       MOSUNNY   56  38  50 W15       29.90R
ROME           MOSUNNY   57  42  57 W18       29.87R
ELMIRA         PTSUNNY   63  30  28 VRB6      29.89S
BINGHAMTON     SUNNY     55  39  54 NW13      29.88R
MONTICELLO     SUNNY     61  37  41 NW16G29   29.81S
$$

NYZ026>034-041>043-242200-
NORTH


CITY           SKY/WX    TMP DP  RH WIND       PRES   REMARKS
WATERTOWN      SUNNY     57  44  62 SW12      29.87F
FORT DRUM      NOT AVBL
MASSENA        PTCLDY    59  41  51 CALM      29.85F
SARANAC LAKE   CLOUDY    46  40  79 CALM      29.83S
PLATTSBURGH    CLOUDY    50  41  71 NW7       29.84S
$$

NYZ001>004-010>016-019>021-242200-
WEST


CITY           SKY/WX    TMP DP  RH WIND       PRES   REMARKS
NIAGARA FALLS  PTSUNNY   52  36  54 W10       29.95F
BUFFALO        PTSUNNY   51  42  71 SW14      29.95F
DUNKIRK        MOSUNNY   54  43  66 SW10      29.97F
JAMESTOWN      SUNNY     52  37  58 W7        29.98F
WELLSVILLE     MOSUNNY   55  23  28 NW8       29.95S
ROCHESTER      PTSUNNY   56  36  47 W12       29.93R
PENN YAN       MOSUNNY   57  34  41 VRB7      29.92S
$$

             KEY
       WCI = WIND CHILL INDEX
       VSB = VISIBILITY
       HX  = HEAT INDEX
$$



USA.gov is the U.S. government's official web portal to all federal, state and local government web resources and services.